Location: ??????
(55.2000°N, 38.3000°E)
Time: 18:07:38
(UTC+00:00)

Cosmos 2084 - Pass Details

Date: 15 November 2025
Orbit: 529 x 573 km, 62.8° (Epoch: 14 December)

Event Time Altitude Azimuth Distance (km) Brightness Sun altitude
Exits shadow 03:29:44 19° 299° (WNW) 1,337 4.7 -12.6°
Maximum altitude 03:32:30 59° 225° (SW) 629 3.4 -12.2°
Drops below altitude 10° 03:36:27 10° 146° (SE) 1,788 6.7 -11.6°
Sets 03:38:39 0° 142° (SE) 2,670 7.8 -11.3°
